Content
SEND FEEDBACK

Daily
Averages
Monthly
Summary
United States of America

ASATDAS, GUAM


Home > North America > United States > Guam
Elevation: 612 feet     Latitude: 13 35N     Longitude: 144 56E

WEATHER
 
SELECT A DAY
Number of Records: 215,513;   Date Range: 1/1/95 - 12/17/14
 
SHARE

PRINT THIS DATA

[ ← Previous Day ]
WEATHER ALMANAC - JANUARY 2, 2013
[ Next Day → ]
[ °C ]   °F
Weather ElementAverageHighLow
Temperature82.1 °F86 °F (10:54 am)78.8 °F (7:30 pm)
Dewpoint77.1 °F79 °F (3:54 pm)75.2 °F (7:30 pm)
Humidity84.9 %94 % (1:54 am)74 % (10:54 am)
Barometer29.87 in29.93 in (10:08 am)29.83 in (2:54 pm)
Wind Speed15.7 mph23 mph (11:09 am)
Wind Gust34.5 mph (11:54 am)
Weather ElementAverage
Visibility9.9 mi
Wind DirectionENE (77.2 °)

Weather ElementTotal
Precipitation0.22 in
Cooling Degree Days17.4 (Base 65)
Growing Degree Days32.4 (Base 50)
Averaged from 32 records on January 2, 2013
WEATHER CONDITIONS BREAKOUT
WIND DIRECTION BREAKOUT
WEATHER BY HOUR - JANUARY 2, 2013
[ °C ]   °F
Local TimeTemperatureDewpointHumidityBarometerVisibilityWind DirectionWind SpeedGust SpeedPrecipitationEventsConditions
1:54 AM80.1 °F78.1 °F94 %29.86 in10.0 miEast (80°)10.4 mph0.00 inPartly Cloudy
2:36 AM80.6 °F77.0 °F89 %29.88 in10.0 miEast (90°)12.7 mphMostly Cloudy
2:54 AM80.1 °F77.0 °F90 %29.86 in9.0 miEast (80°)11.5 mphMostly Cloudy
3:10 AM80.6 °F77.0 °F89 %29.87 in10.0 miEast (80°)11.5 mph0.00 inRainLight Rain
3:54 AM79.0 °F75.9 °F90 %29.85 in10.0 miEast (80°)15.0 mph0.01 inClear
4:54 AM80.1 °F75.9 °F87 %29.85 in10.0 miEast (80°)13.8 mphScattered Clouds
5:54 AM80.1 °F75.9 °F87 %29.86 in10.0 miEast (90°)11.5 mphScattered Clouds
6:54 AM80.1 °F77.0 °F90 %29.88 in10.0 miEast (80°)12.7 mphScattered Clouds
7:54 AM81.0 °F77.0 °F88 %29.89 in10.0 miEast (80°)15.0 mphScattered Clouds
8:54 AM82.0 °F77.0 °F85 %29.91 in10.0 miEast (80°)16.1 mph25.3 mphScattered Clouds
9:54 AM84.0 °F78.1 °F82 %29.91 in10.0 miEast (80°)15.0 mphScattered Clouds
10:08 AM84.2 °F78.8 °F84 %29.93 in10.0 miENE (70°)16.1 mph24.2 mphMostly Cloudy
10:54 AM86.0 °F77.0 °F74 %29.90 in10.0 miEast (80°)20.7 mph26.5 mphMostly Cloudy
11:09 AM84.2 °F77.0 °F79 %29.92 in10.0 miENE (60°)23.0 mph31.1 mphMostly Cloudy
11:54 AM84.9 °F75.9 °F74 %29.88 in10.0 miEast (80°)23.0 mph34.5 mphScattered Clouds
12:54 PM84.9 °F77.0 °F77 %29.86 in10.0 miEast (90°)20.7 mph29.9 mphMostly Cloudy
1:54 PM84.0 °F78.1 °F82 %29.84 in10.0 miEast (80°)16.1 mph0.02 inClear
2:37 PM86.0 °F78.8 °F79 %29.85 in10.0 miENE (70°)15.0 mph27.6 mphMostly Cloudy
2:54 PM84.9 °F77.0 °F77 %29.83 in10.0 miEast (80°)18.4 mph27.6 mphMostly Cloudy
3:18 PM86.0 °F77.0 °F74 %29.85 in10.0 miEast (80°)16.1 mph24.2 mphScattered Clouds
3:29 PM84.2 °F77.0 °F79 %29.85 in10.0 miEast (80°)17.3 mph24.2 mphMostly Cloudy
3:54 PM82.9 °F79.0 °F88 %29.83 in10.0 miENE (70°)15.0 mphScattered Clouds
4:26 PM82.4 °F77.0 °F84 %29.86 in10.0 miEast (80°)17.3 mph24.2 mphScattered Clouds
4:54 PM82.9 °F77.0 °F82 %29.84 in10.0 miENE (60°)17.3 mphScattered Clouds
5:54 PM82.0 °F75.9 °F82 %29.85 in10.0 miENE (70°)17.3 mph23.0 mphPartly Cloudy
6:54 PM81.0 °F78.1 °F91 %29.86 in10.0 miENE (70°)15.0 mph0.00 inScattered Clouds
7:30 PM78.8 °F75.2 °F89 %29.90 in7.0 miEast (80°)15.0 mph23.0 mph0.09 inMostly Cloudy
7:54 PM80.1 °F77.0 °F90 %29.88 in10.0 miEast (80°)15.0 mph0.09 inPartly Cloudy
8:54 PM80.1 °F77.0 °F90 %29.90 in10.0 miENE (70°)12.7 mphPartly Cloudy
9:54 PM80.1 °F77.0 °F90 %29.90 in10.0 miENE (70°)13.8 mphPartly Cloudy
10:54 PM80.1 °F77.0 °F90 %29.90 in10.0 miENE (70°)19.6 mph24.2 mph0.00 inRainLight Rain
11:54 PM79.0 °F75.9 °F90 %29.89 in10.0 miEast (80°)13.8 mph0.01 inClear
Hourly data recorded from PGUM, located miles away from Asatdas, Guam







STORIES FROM OUR PARTNERS